ROMMA est une association bénévole à but non lucratif. Votre soutien est indispensable : ADHERER à ROMMA ou FAIRE un DON

Chambon - (38, Isère)

Oisans (2460 m)   Longitude: 06° 10' 42" E   Latitude: 45° 01' 32" N Station partenaire n°803
 

Détail journalier du     <<     >>

Température Humidité Vent Dir Rafale Dir. rafale Neige 1 Neige 2
Heure (°C) (%) (km/h) (km/h) (cm) (cm)
01:00 -0.5884N16ENE180228
02:00 -0.3865N20N180228
03:00 -0.9875N18NO180228
04:00 -1.2857N16N180228
05:00 -1.4855N17N180228
06:00 -1.5848NNE33NNE180228
07:00 -1.7867NNE23NNE180228
08:00 -1.5845NNE17NE180228
09:00 0.3764NNE16NNE180228
10:00 2.5653SO12SO180228
11:00 1.1684N13NNE180228
12:00 2.1634NNE11NNE180228
13:00 2.6603NNE14NNE179228
14:00 1.8657NNE16NE179228
15:00 4.3543NE13NE178227
16:00 6.5462NNE8E177227
17:00 4.7512N5NNE176227
18:00 4.0551N5N176227
19:00 2.9612N6N176227
20:00 1.8654N11NNE176226
21:00 1.8655NNE9NNE176226
22:00 1.3663NNE10NNO176226
23:00 1.2632NNE9NNO176226
minuit 0.8643NNE12E176226

Graphique du 19-04-2019

 

Serveur OMMA